Солотча

Россия / Рязанская область     54°55′29″N   39°50′04″E
темп.,
°C
ветер,
м/с
пор.,
м/с
влажн.,
%
обл.,
%
осадки,
мм/ч
давл.,
гПа
погр.,
м
7 мая, пт
пт700:00+9зюз3990100 0.8 1009572
03:00+7юз2693100 1.1 1010222
06:00+7з2693100 0.1 1010286
09:00+9з3479100 0.1 1011616
12:00+13зюз474223 0.0 10122308
15:00+15зюз473497 0.0 10122780
18:00+13юз34462 0.0 10131347
21:00+8ю226313 0.0 101421
8 мая, сб
сб800:00+6ююв257057 0.0 101576
03:00+6ююв41172100 0.0 1014263
06:00+8ююв51468100 0.0 1012546
09:00+11ююв61372100 0.1 10111433
12:00+9юв71689100 3.3 10091226
15:00+9ююв51591100 8.5 10061182
18:00+10ююв41496100 9.4 10041189
21:00+10ю41095100 10.3 1003499
9 мая, вс
вс900:00+9ююз41095100 0.0 1003525
03:00+8зюз4795100 0.0 1004547
06:00+5сз51096100 0.1 1007597
09:00+4сз51196100 0.5 1011854
12:00+8сз5978100 0.2 10141237
15:00+9ссз6962100 0.3 10161524
18:00+10с39588 0.0 10191681
21:00+5сз22795 0.0 102213
10 мая, пн
пн1000:00+3сз28840 0.0 1024146
03:00+3ссз27860 0.0 1026133
06:00+4с28770 0.0 1028208
09:00+11с36454 0.0 1029909
12:00+14ссв353417 0.0 10291639
15:00+16ссв3433100 0.0 10291824
18:00+14ссв354611 0.0 1029507
21:00+8св23660 0.0 103042
11 мая, вт
вт1100:00+6св23712 0.0 103146
03:00+5св23785 0.0 103245
06:00+7св27735 0.0 1032184
09:00+14всв47475 0.0 1032700
12:00+18всв46405 0.0 10311320
15:00+19всв46415 0.0 10291357
18:00+18всв36530 0.0 1029894
21:00+11в25825 0.0 103087